User: anonymous   Login
Location: Oshawa
(43.9000°N, 78.8670°W)
Time: 06:04:48
(UTC-04:00)
Language:

Altair - Orbit

View from above orbital plane
View from above orbital plane
View from above satellite
View from above satellite

Ground track
Ground track

The orbit data is extracted from the following two-line orbital elements,

1    50U 60009B   17232.55651063 -.00000085 +00000-0 +11842-4 0  9990
2    50 047.2313 083.9090 0113679 130.1828 230.8978 12.20101668544238
Epoch (UTC): 20 August 2017 13:21:22
Eccentricity: 0.0113679
inclination: 47.2313°
perigee height: 1501 km
apogee height: 1682 km
right ascension of ascending node: 83.9090°
argument of perigee: 130.1828°
revolutions per day: 12.20101668
mean anomaly at epoch: 230.8978°
orbit number at epoch: 54423

The dashed part of the orbit path shows where the satellite is in the earth's shadow,  

DLR